Tracking 19792 objects as of 16-Jul-2019
HD Live streaming from Space Station
objects crossing your sky now

COSMOS 1818 COOLANT

Track COSMOS 1818 COOLANT now!
10-day predictions


NORAD ID: 36937
Int'l Code: 1987-011R
Perigee: 770.9 km
Apogee: 798.9 km
Inclination: 65.0 °
Period: 100.4 minutes
Semi major axis: 7155 km
RCS: 0.0037 m2 (small)
Launch date: February 1, 1987
Source: Commonwealth of Independent States (former USSR) (CIS)
Launch site: TYURATAM MISSILE AND SPACE COMPLEX (TTMTR)

Note: This is SATELLITE DEBRIS
aabbcc
Your satellite tracking list
Your tracking list is empty




NASA's NSSDC Master Catalog

Two Line Element Set (TLE):
1 36937U 87011R   19196.11971912 -.00000007 +00000-0 +33239-4 0  9994
2 36937 065.0142 104.7807 0019571 258.6795 101.2092 14.34191821307975
Source of the keplerian elements: AFSPC